[[{"header":{"parameterUnit":"m.s-1","parameterCategory":1,"la1":30.2991,"la2":30.254,"lo1":-89.0895,"lo2":-89.0444,"dy":0.0017,"dx":0.0017,"nx":28,"ny":28,"refTime":"2024-08-02T03:00:00:Z","depth":0,"parameterNumber":2,"parameterNumberName":"U-component_of_WINDS"},"data":[0,0,0,0,0,0,0,0,0,0,0,0,0,0,0,0,0,0,0,0,0,0,0,0,0,0,0,0,0,0,0,0,0,0,0,0,0,0,0,0,0,0,0,0,0,0,0,0,0,0,0,0,0,0,0,0,0,0,4.344,4.3441,0,4.3593,4.3594,4.3596,4.3533,4.3529,4.3525,4.3522,4.3682,4.3689,4.3697,0,0,0,0,0,0,0,0,0,0,0,0,0,4.3094,4.3101,4.344,4.3442,4.3443,4.3592,4.3594,4.3597,4.3533,4.3529,4.3524,4.352,4.3679,4.3688,4.3698,0,0,0,0,0,0,0,0,0,0,0,0,0,4.3246,4.3103,4.3439,4.343,4.343,4.3592,4.3595,4.3597,4.3534,4.3529,4.3523,4.3518,4.3676,4.3688,4.3699,4.388,0,0,4.3734,4.3739,0,0,0,0,0,0,0,0,4.3237,4.3258,4.3429,4.3431,4.3432,4.3538,4.3531,4.3692,4.3536,4.3495,4.3522,4.3515,4.3639,4.3653,4.3694,4.3887,4.3894,4.3735,4.3742,4.3747,4.375,0,0,0,0,0,0,0,4.3227,4.3252,4.35,4.3432,4.3433,4.3418,4.3434,4.3562,4.3596,4.3498,4.3494,4.3513,4.3638,4.3683,4.3697,4.3897,4.3735,4.3745,4.3752,4.3757,4.4244,4.4249,0,0,0,0,0,0,4.3216,4.3243,4.3495,4.3505,4.3319,4.3429,4.3446,4.3509,4.3594,4.3602,4.3517,4.3509,4.3666,4.3684,4.3702,4.3918,4.3747,4.3758,4.3764,4.4238,4.4245,4.4252,0,0,0,0,0,0,4.3209,4.3239,4.3489,4.3373,4.3404,4.3441,4.3512,4.3515,4.356,4.3609,4.3615,4.3556,4.3662,4.3686,4.3835,4.3922,4.3763,4.3773,4.4231,4.424,4.4248,4.4351,0,0,0,0,0,0,4.3199,4.3237,4.3306,4.3375,4.341,4.3619,4.3518,4.3522,4.3579,4.357,4.3647,4.3654,4.366,4.3818,4.3847,4.3935,4.3782,4.4223,4.4235,4.4245,4.434,4.4362,4.4381,0,0,0,0,0,4.3187,4.333,4.3309,4.334,4.3497,4.3625,4.3645,4.3647,4.3587,4.3656,4.3687,4.3652,4.3909,4.3834,4.3866,4.3959,4.4218,4.4231,4.4245,4.433,4.4358,4.4381,0,0,0,0,0,0,4.3271,4.3339,4.3317,4.3486,4.355,4.3613,4.3701,4.3676,4.3759,4.3748,4.3748,4.3766,4.3919,4.3954,4.3871,4.4137,4.4054,4.4074,4.4108,4.4135,4.4155,4.4143,4.3792,0,0,0,0,0,4.3309,4.3407,4.3461,4.3605,4.3638,4.3664,4.372,4.3716,4.3783,4.381,4.3852,4.3918,4.4013,4.4076,4.4167,4.4345,4.436,4.4425,4.4445,4.4462,4.4479,4.4574,4.4602,4.4296,4.4296,4.4296,0,0,4.339,4.3438,4.35,4.3623,4.3672,4.3773,4.3687,4.3798,4.3873,4.3827,4.3969,4.4002,4.4077,4.424,4.4314,4.4274,4.4567,4.4479,4.4493,4.4501,4.459,4.4619,4.4645,4.4305,4.4304,4.4302,0,0,4.3586,4.3634,4.3758,4.3808,4.3882,4.3899,4.3928,4.3996,4.4015,4.4158,4.4125,4.4214,4.4379,4.4432,4.4481,4.4696,4.4666,4.4726,4.4835,4.4926,4.495,4.4972,4.5046,4.5073,4.4744,4.4744,4.4744,0,4.3677,4.3826,4.3825,4.3938,4.3992,4.3954,4.4079,4.4128,4.4229,4.4267,4.4221,4.4425,4.4473,4.4646,4.4699,4.4741,4.4774,4.4717,4.4947,4.4968,4.4988,4.5059,4.5088,4.4751,4.475,4.4749,4.4749,0,4.3932,4.4037,4.4128,4.4224,4.4289,4.4408,4.4425,4.4491,4.4481,4.4502,4.4647,4.4703,4.4802,4.4844,4.4837,4.5017,4.4989,4.4945,4.4861,4.5024,4.509,4.5118,4.476,4.4758,4.4756,4.4754,0,0,4.4187,4.4279,4.4312,4.4354,4.4433,4.4514,4.463,4.4726,4.4782,4.4853,4.495,4.5089,4.5048,4.5104,4.5102,4.5183,4.5347,4.5128,4.513,4.5165,4.5546,4.5577,4.5609,4.5328,4.5333,4.5337,4.5539,0,4.4387,4.459,4.4591,4.4778,4.4873,4.4838,4.4939,4.4998,4.5021,4.5105,4.5131,4.5229,4.5168,4.5201,4.528,4.531,4.5423,4.5296,4.5417,4.5422,4.5397,4.5644,4.5678,4.5865,4.5565,4.557,4.5573,0,4.4649,4.4725,4.4921,4.4983,4.5023,4.5114,4.5201,4.5283,4.5349,4.536,4.5421,4.5406,4.5525,4.5438,4.5601,4.5514,4.5564,4.5587,4.5594,4.5604,4.5506,4.5658,4.5926,4.5953,4.5615,4.5611,4.5608,0,4.4811,4.4964,4.5099,4.5137,4.5214,4.5278,4.5314,4.5374,4.5431,4.5508,4.5544,4.5635,4.5684,4.5754,4.5765,4.5701,4.5927,4.5842,4.5939,4.5939,4.5987,4.5983,4.6263,4.6023,4.6022,4.6022,4.6021,0,4.5033,4.5154,4.5173,4.5257,4.539,4.5391,4.5523,4.5554,4.5607,4.5696,4.5672,4.5756,4.5765,4.5852,4.5861,4.5993,4.6016,4.6028,4.6028,4.6029,4.6027,4.606,4.6046,4.6029,4.6028,4.6026,4.6025,0,4.5237,4.5255,4.54,4.546,4.5478,4.5574,4.5625,4.5705,4.5725,4.5837,4.5864,4.5896,4.5996,4.6013,4.6133,4.6138,4.6295,4.6284,4.6272,4.627,4.6365,4.6355,4.6674,4.6715,4.645,4.6453,4.6455,0,4.5377,4.5468,4.5537,4.5594,4.5632,4.5724,4.5781,4.5786,4.5847,4.5928,4.5998,4.6095,4.6173,4.6335,4.6369,4.646,4.6449,4.6555,4.6463,4.6459,4.6448,4.6441,4.6449,4.6572,4.6575,4.6577,4.6579,0,4.5622,4.5625,4.5708,4.5794,4.5863,4.5931,4.5996,4.6044,4.6057,4.6127,4.6228,4.6288,4.6408,4.6505,4.6595,4.6631,4.6608,4.6608,4.6635,4.6635,4.6623,4.6628,4.6318,4.66,4.6598,4.6597,4.6596,4.6595,4.5796,4.5874,4.5935,4.6027,4.6076,4.6136,4.6213,4.6242,4.6326,4.6423,4.6421,4.6532,4.6594,4.6712,4.6754,4.6841,4.6807,4.6847,4.6856,4.6865,4.6873,4.6611,4.6858,4.6857,4.6857,4.6856,4.6856,0,4.6037,4.6074,4.6159,4.6249,4.6322,4.6292,4.6362,4.6424,4.6522,4.6582,4.6658,4.6774,4.6867,4.6908,4.6999,4.7061,4.7052,4.7085,4.7079,4.7087,4.6899,4.6866,4.709,4.709,4.709,4.709,4.709,4.709,4.6172,4.6302,4.6313,4.6466,4.6503,4.6609,4.6651,4.6707,4.6754,4.6883,4.696,4.6986,4.7038,4.7133,4.7217,4.7226,4.726,4.7297,4.7302,4.7125,4.7101,4.7078,4.7047,4.7305,4.7306,4.7482,4.7484,4.7485]},{"header":{"parameterUnit":"m.s-1","parameterCategory":1,"la1":30.2991,"la2":30.254,"lo1":-89.0895,"lo2":-89.0444,"dy":0.0017,"dx":0.0017,"nx":28,"ny":28,"refTime":"2024-08-02T03:00:00:Z","depth":0,"parameterNumber":3,"parameterNumberName":"V-component_of_WINDS"},"data":[0,0,0,0,0,0,0,0,0,0,0,0,0,0,0,0,0,0,0,0,0,0,0,0,0,0,0,0,0,0,0,0,0,0,0,0,0,0,0,0,0,0,0,0,0,0,0,0,0,0,0,0,0,0,0,0,0,0,3.3308,3.3309,0,3.338,3.338,3.3381,3.3351,3.3349,3.3348,3.3346,3.3417,3.342,3.3423,0,0,0,0,0,0,0,0,0,0,0,0,0,3.3142,3.3145,3.3308,3.3309,3.331,3.3379,3.338,3.3381,3.3351,3.3349,3.3347,3.3345,3.3415,3.342,3.3424,0,0,0,0,0,0,0,0,0,0,0,0,0,3.3214,3.3147,3.3308,3.3303,3.3304,3.3379,3.338,3.3382,3.3352,3.3349,3.3347,3.3344,3.3414,3.3419,3.3424,3.3508,0,0,3.344,3.3442,0,0,0,0,0,0,0,0,3.321,3.322,3.3303,3.3304,3.3304,3.3354,3.3348,3.3424,3.3353,3.3334,3.3346,3.3343,3.3398,3.3404,3.3423,3.3511,3.3514,3.3441,3.3444,3.3446,3.3447,0,0,0,0,0,0,0,3.3205,3.3217,3.3336,3.3304,3.3305,3.3297,3.3304,3.3362,3.3379,3.3335,3.3333,3.3342,3.3397,3.3418,3.3424,3.3515,3.344,3.3445,3.3448,3.345,3.3672,3.3675,0,0,0,0,0,0,3.32,3.3213,3.3334,3.3338,3.325,3.3302,3.331,3.3341,3.3378,3.3382,3.3344,3.334,3.341,3.3418,3.3427,3.3525,3.3446,3.3451,3.3454,3.367,3.3673,3.3676,0,0,0,0,0,0,3.3197,3.3212,3.3331,3.3275,3.329,3.3307,3.3342,3.3343,3.3364,3.3385,3.3388,3.3362,3.3409,3.3419,3.3487,3.3528,3.3453,3.3458,3.3666,3.3671,3.3675,3.3725,0,0,0,0,0,0,3.3192,3.3211,3.3243,3.3276,3.3293,3.3392,3.3344,3.3347,3.3373,3.3369,3.3403,3.3406,3.3407,3.348,3.3493,3.3533,3.3462,3.3663,3.3668,3.3673,3.3719,3.373,3.3739,0,0,0,0,0,3.3187,3.3254,3.3245,3.326,3.3335,3.3395,3.3404,3.3405,3.3377,3.3409,3.3422,3.3405,3.3521,3.3487,3.3501,3.3544,3.366,3.3667,3.3673,3.3715,3.3728,3.3739,0,0,0,0,0,0,3.3226,3.3259,3.3249,3.333,3.336,3.3389,3.343,3.3419,3.3457,3.3451,3.345,3.3458,3.3528,3.3543,3.3504,3.3626,3.3586,3.3596,3.3613,3.3626,3.3635,3.363,3.3466,0,0,0,0,0,3.3244,3.3291,3.3317,3.3385,3.3401,3.3413,3.3439,3.3437,3.3468,3.348,3.3499,3.3528,3.3571,3.3599,3.364,3.3721,3.3727,3.3758,3.3767,3.3775,3.3783,3.3825,3.3839,3.3697,3.3697,3.3697,0,0,3.3281,3.3305,3.3335,3.3394,3.3417,3.3464,3.3424,3.3476,3.3511,3.3488,3.3553,3.3567,3.36,3.3675,3.3708,3.3689,3.3824,3.3783,3.3789,3.3793,3.3833,3.3847,3.3859,3.3701,3.37,3.3699,0,0,3.3374,3.3398,3.3457,3.348,3.3515,3.3523,3.3537,3.3568,3.3577,3.3643,3.3626,3.3666,3.3741,3.3764,3.3786,3.3886,3.387,3.3899,3.395,3.3991,3.4002,3.4012,3.4046,3.4059,3.3907,3.3907,3.3907,0,3.3416,3.3488,3.3488,3.3542,3.3567,3.3549,3.3607,3.363,3.3677,3.3694,3.3672,3.3764,3.3785,3.3864,3.3888,3.3906,3.3921,3.3895,3.4001,3.4011,3.402,3.4052,3.4066,3.391,3.391,3.3909,3.3909,0,3.3537,3.3587,3.363,3.3676,3.3706,3.3762,3.3769,3.38,3.3795,3.3804,3.387,3.3894,3.3939,3.3957,3.3953,3.4035,3.4022,3.4001,3.3961,3.4037,3.4067,3.408,3.3915,3.3913,3.3913,3.3912,0,0,3.3657,3.3702,3.3717,3.3737,3.3774,3.3812,3.3866,3.391,3.3935,3.3967,3.4012,3.4074,3.4054,3.4079,3.4077,3.4113,3.4188,3.4087,3.4087,3.4104,3.4279,3.4294,3.4309,3.4179,3.4181,3.4183,3.4276,0,3.3752,3.3848,3.3849,3.3936,3.3981,3.3964,3.401,3.4037,3.4047,3.4085,3.4095,3.414,3.411,3.4125,3.416,3.4172,3.4223,3.4165,3.4218,3.422,3.421,3.4325,3.4342,3.4429,3.4288,3.429,3.4291,0,3.3876,3.3912,3.4004,3.4033,3.4052,3.4094,3.4133,3.4171,3.42,3.4204,3.4231,3.4223,3.4276,3.4235,3.4308,3.4268,3.4289,3.4298,3.4302,3.4306,3.426,3.4332,3.4456,3.4469,3.431,3.4309,3.4307,0,3.3952,3.4024,3.4088,3.4106,3.4141,3.4171,3.4187,3.4214,3.424,3.4274,3.429,3.433,3.4352,3.4382,3.4384,3.4354,3.4456,3.4416,3.446,3.446,3.4482,3.4481,3.4611,3.4497,3.4497,3.4497,3.4497,0,3.4058,3.4114,3.4123,3.4163,3.4225,3.4225,3.4286,3.4299,3.4323,3.4363,3.435,3.4388,3.4389,3.4427,3.4429,3.4488,3.4498,3.4502,3.4501,3.4503,3.4502,3.4516,3.451,3.45,3.45,3.4499,3.4498,0,3.4154,3.4163,3.4231,3.4259,3.4267,3.4311,3.4334,3.4371,3.4379,3.443,3.4442,3.4454,3.4499,3.4504,3.4555,3.4556,3.4627,3.462,3.4617,3.4616,3.466,3.4655,3.4803,3.4822,3.4697,3.4698,3.4699,0,3.4221,3.4264,3.4296,3.4322,3.434,3.4383,3.4409,3.441,3.4437,3.4473,3.4505,3.4548,3.4583,3.4654,3.4666,3.4705,3.4699,3.4748,3.4705,3.4704,3.4698,3.4696,3.4699,3.4756,3.4758,3.4759,3.476,0,3.4337,3.4339,3.4377,3.4418,3.4449,3.4481,3.451,3.4532,3.4536,3.4568,3.4613,3.464,3.4692,3.4734,3.4772,3.4787,3.4774,3.4773,3.4786,3.4787,3.4783,3.4784,3.4639,3.477,3.4769,3.4768,3.4768,3.4767,3.442,3.4457,3.4485,3.4528,3.455,3.4578,3.4613,3.4625,3.4663,3.4707,3.4704,3.4754,3.478,3.483,3.4847,3.4885,3.4868,3.4886,3.4891,3.4895,3.4899,3.4777,3.4892,3.4891,3.4891,3.4891,3.4891,0,3.4534,3.4551,3.4591,3.4633,3.4666,3.4652,3.4683,3.4711,3.4756,3.4782,3.4816,3.4867,3.4907,3.4923,3.4962,3.4989,3.4984,3.4999,3.4997,3.5,3.4912,3.4897,3.5003,3.5003,3.5003,3.5003,3.5003,3.5003,3.4598,3.4659,3.4664,3.4735,3.4752,3.4801,3.482,3.4844,3.4865,3.4923,3.4957,3.4967,3.4988,3.5028,3.5064,3.5068,3.5082,3.51,3.5101,3.5018,3.5006,3.4996,3.4982,3.5103,3.5104,3.5186,3.5186,3.5187]}]]